CW2578 Weather Reports


time (UTC)temp
C
wind
direction
speed
KPH
gust
KPH
rain 1hr
cm
rain 24hr
cm
rain mn
cm
humidity
%
barometer
mb
20260504220503 24 320 6.4 29.0 0.00 0.00 0.00 51 1000.6
20260504215005 23 259 6.4 20.9 0.00 0.00 0.00 50 1000.6
20260504213442 24 136 6.4 25.7 0.00 0.00 0.00 49 1000.6
20260504211943 24 227 6.4 22.5 0.00 0.00 0.00 47 1000.6
20260504210525 25 239 6.4 25.7 0.00 0.00 0.00 45 1000.5
20260504204943 25 188 6.4 33.8 0.00 0.00 0.00 46 1000.7
20260504203505 26 203 6.4 25.7 0.00 0.00 0.00 50 1000.7
20260504202025 25 193 6.4 32.2 0.00 0.00 0.00 47 1000.6
20260504200443 26 315 6.4 30.6 0.00 0.00 0.00 47 1000.8
20260504195005 26 245 6.4 25.7 0.00 0.00 0.00 48 1001.1
20260504193504 25 277 6.4 19.3 0.00 0.00 0.00 55 1001.5
20260504191943 25 298 6.4 22.5 0.00 0.00 0.00 48 1001.7
20260504190444 24 256 6.4 22.5 0.00 0.00 0.00 54 1002.0
20260504184943 25 131 4.8 22.5 0.00 0.00 0.00 56 1002.2
20260504183443 24 202 4.8 17.7 0.00 0.00 0.00 54 1002.4
20260504181944 23 223 4.8 19.3 0.00 0.00 0.00 55 1002.5
20260504180525 24 261 4.8 20.9 0.00 0.00 0.00 57 1002.6
20260504174944 23 205 4.8 25.7 0.00 0.00 0.00 57 1002.9
20260504173526 23 169 4.8 16.1 0.00 0.00 0.00 56 1002.9
20260504172004 23 340 4.8 25.7 0.00 0.00 0.00 53 1003.3
20260504170443 22 101 4.8 19.3 0.00 0.00 0.00 54 1003.6
20260504160443 22 173 4.8 19.3 0.00 0.00 0.00 50 1004.5
20260504150444 20 155 3.2 16.1 0.00 0.00 0.00 57 1005.1
20260504140443 18 181 3.2 9.7 0.00 0.00 0.00 66 1005.8
20260504130505 15 196 3.2 11.3 0.00 0.00 0.00 69 1006.3
20260504110444 9 171 3.2 6.4 0.00 0.00 0.00 83 1006.5
20260504100444 10 227 3.2 12.9 0.00 0.00 0.00 81 1006.2
20260504082005 9 178 4.8 8.0 0.00 0.00 0.00 82 1006.5
20260504080445 9 163 4.8 3.2 0.00 0.00 0.00 82 1006.6
20260504050506 11 173 6.4 12.9 0.00 0.00 0.00 77 1008.6
20260504044946 11 257 6.4 11.3 0.00 0.00 0.00 77 1008.7
20260504043444 11 263 6.4 11.3 0.00 0.00 0.00 76 1008.8
20260504041945 11 188 8.0 12.9 0.00 0.00 0.00 76 1008.9
20260504040526 11 248 6.4 9.7 0.00 0.00 0.00 76 1008.9
20260504035027 11 174 8.0 14.5 0.00 0.00 0.00 76 1009.0
20260504033445 11 151 8.0 16.1 0.00 0.00 0.00 75 1009.1
20260504031945 11 172 8.0 16.1 0.00 0.00 0.00 75 1009.0
20260504030445 11 228 8.0 14.5 0.00 0.00 0.00 75 1009.2
20260504024945 11 163 8.0 12.9 0.00 0.00 0.00 77 1009.3
20260504023445 11 182 8.0 12.9 0.00 0.00 0.00 78 1009.3
20260504021945 11 178 8.0 17.7 0.00 0.00 0.00 79 1009.2
20260504020445 11 157 8.0 16.1 0.00 0.00 0.00 80 1009.2
20260504015007 11 159 8.0 16.1 0.00 0.00 0.00 81 1009.2
20260504013445 11 163 8.0 11.3 0.00 0.00 0.00 81 1009.3
20260504012006 11 160 8.0 14.5 0.00 0.00 0.00 80 1009.5
20260504010507 11 169 8.0 12.9 0.00 0.00 0.00 80 1009.6
20260504004945 11 184 8.0 12.9 0.00 0.00 0.00 79 1009.6
20260504003445 11 157 8.0 16.1 0.00 0.00 0.00 78 1009.5
20260504002006 12 162 8.0 12.9 0.00 0.00 0.00 77 1009.6
20260504000507 12 215 8.0 12.9 0.00 0.00 0.00 76 1009.8
20260503234945 12 216 8.0 19.3 0.00 0.00 0.00 74 1010.0
20260503233445 12 171 8.0 17.7 0.00 0.00 0.00 72 1010.2
20260503231945 13 200 8.0 16.1 0.00 0.00 0.00 71 1010.6
20260503230507 13 230 8.0 19.3 0.00 0.00 0.00 70 1010.6
20260503224945 13 237 8.0 19.3 0.00 0.00 0.00 71 1010.7
20260503223506 12 181 8.0 24.1 0.00 0.00 0.00 70 1011.0
20260503221945 12 252 8.0 20.9 0.00 0.00 0.00 70 1011.3